TimePST,TemperatureF,Dew PointF,Humidity,Sea Level PressureIn,VisibilityMPH,Wind Direction,Wind SpeedMPH,Gust SpeedMPH,PrecipitationIn,Events,Conditions,WindDirDegrees,DateUTC
12:56 AM,50.0,33.1,52,29.90,10.0,South,18.4,26.5,N/A,,Clear,180,2013-03-06 08:56:00
1:56 AM,48.0,34.0,58,29.88,10.0,South,24.2,33.4,N/A,,Clear,180,2013-03-06 09:56:00
2:56 AM,46.0,35.1,66,29.88,10.0,South,19.6,29.9,N/A,,Clear,190,2013-03-06 10:56:00
3:56 AM,46.0,33.1,61,29.88,10.0,SSW,18.4,-,N/A,,Clear,200,2013-03-06 11:56:00
4:56 AM,51.1,26.1,38,29.89,10.0,South,12.7,21.9,N/A,,Clear,190,2013-03-06 12:56:00
5:56 AM,45.0,28.9,53,29.92,10.0,South,8.1,-,N/A,,Clear,180,2013-03-06 13:56:00
6:17 AM,50.0,28.4,43,29.92,10.0,South,15.0,23.0,N/A,,Partly Cloudy,190,2013-03-06 14:17:00
6:56 AM,51.1,28.0,41,29.92,10.0,SSW,17.3,26.5,N/A,,Partly Cloudy,210,2013-03-06 14:56:00
7:56 AM,55.0,30.9,40,29.93,10.0,SSW,21.9,27.6,N/A,,Partly Cloudy,210,2013-03-06 15:56:00
8:56 AM,59.0,30.9,35,29.94,10.0,WSW,12.7,-,N/A,,Scattered Clouds,240,2013-03-06 16:56:00
9:56 AM,62.1,30.0,30,29.94,10.0,SW,16.1,25.3,N/A,,Mostly Cloudy,220,2013-03-06 17:56:00
10:56 AM,63.0,30.9,30,29.91,10.0,SW,26.5,36.8,N/A,,Mostly Cloudy,220,2013-03-06 18:56:00
11:56 AM,63.0,28.9,28,29.89,10.0,SW,29.9,40.3,N/A,,Mostly Cloudy,220,2013-03-06 19:56:00
12:56 PM,64.0,27.0,25,29.90,10.0,SW,24.2,34.5,N/A,,Mostly Cloudy,230,2013-03-06 20:56:00
1:56 PM,64.0,28.9,27,29.89,10.0,SW,24.2,36.8,N/A,,Mostly Cloudy,220,2013-03-06 21:56:00
2:56 PM,62.1,30.0,30,29.88,10.0,SW,23.0,35.7,N/A,,Mostly Cloudy,220,2013-03-06 22:56:00
3:56 PM,61.0,28.0,29,29.86,10.0,SSW,25.3,42.6,N/A,,Mostly Cloudy,210,2013-03-06 23:56:00
4:56 PM,57.9,28.9,33,29.86,10.0,SW,26.5,38.0,N/A,,Mostly Cloudy,220,2013-03-07 00:56:00
5:56 PM,55.9,28.9,36,29.87,10.0,SSW,15.0,21.9,N/A,,Mostly Cloudy,210,2013-03-07 01:56:00
6:56 PM,55.0,30.0,38,29.87,10.0,SSW,19.6,29.9,N/A,,Mostly Cloudy,200,2013-03-07 02:56:00
7:56 PM,53.1,28.9,40,29.85,10.0,South,19.6,26.5,N/A,,Scattered Clouds,190,2013-03-07 03:56:00
8:56 PM,52.0,28.0,40,29.84,10.0,South,17.3,24.2,N/A,,Mostly Cloudy,190,2013-03-07 04:56:00
9:56 PM,52.0,27.0,38,29.85,10.0,SW,11.5,26.5,N/A,,Mostly Cloudy,220,2013-03-07 05:56:00
10:56 PM,48.9,30.9,50,29.85,10.0,South,13.8,-,N/A,,Clear,170,2013-03-07 06:56:00
11:56 PM,50.0,30.9,48,29.85,10.0,SSW,21.9,29.9,N/A,,Clear,200,2013-03-07 07:56:00